Weather in Yangjiang

China     19°00′39″N   110°22′44″E
temp.,
°C
wind,
m/s
gust,
m/s
humid.,
%
clouds,
%
prec.,
mm/h
press.,
hPa
HPBL,
m
15 may, sat
sat1523:00+28s4886100 0.0 1009629
02:00+28ssw5108221 0.1 1007730
05:00+28ssw59835 0.0 1007830
08:00+30s69756 0.0 10091017
11:00+31s68655 0.0 10091131
14:00+32s79620 0.0 10071114
17:00+31s69702 0.0 10051007
20:00+28s510835 0.0 1006727
16 may, sun
sun1623:00+28s59850 0.0 1008772
02:00+28ssw510875 0.1 1007742
05:00+27s510907 0.3 1007663
08:00+29s697832 0.3 1009928
11:00+32s79615 0.0 10081025
14:00+32s79600 0.0 1007989
17:00+31s69700 0.0 1005793
20:00+28s510861 0.0 1007659
17 may, mon
mon1723:00+28s49906 0.1 1009569
02:00+28s59897 0.1 1007686
05:00+28s59886 0.0 1007682
08:00+30ssw48785 0.1 1009756
11:00+32s68675 0.0 10091040
14:00+32sse68665 0.0 1007972
17:00+31sse68735 0.0 1006790
20:00+28s598599 0.0 1007680
18 may, tue
tue1823:00+28ssw498897 0.0 1009559
02:00+27ssw388992 0.1 1007426
05:00+27ssw3693100 0.3 1008314
08:00+29s478096 0.5 1009827
11:00+31sse6867100 0.0 10101024
14:00+31sse686887 0.0 10071037
17:00+30sse6771100 0.0 1006928
20:00+28s488352 0.0 1007665
19 may, wed
wed1923:00+27s488990 0.1 1009499
02:00+28sse588753 0.3 1007670
05:00+27sse588993 0.3 1007518
08:00+29sse578089 0.6 1009823
11:00+31sse6870100 0.1 10091077
14:00+31sse6868100 0.1 10071033
17:00+30sse677397 0.0 1005890
20:00+28s59845 0.0 1006692